Voltar ao catálogo

NOAA 16 DEB

AtivoPO
NORAD 41251·DEBRIS·🇺🇸 United States

Lançado Sep 21, 2000 de Vandenberg Space Force Base

Loading…

Próximas Passagens (próximas 24 horas)

TLE

AtualizadoSource: Space-Track

Época: Sep 12, 2026, 08:45 UTC

1 41251U 00055FB  26255.36493832  .00006192  00000-0  17924-2 0  9994
2 41251  98.9649  40.8240 0039011 226.6721 133.1214 14.44412743554506

Acompanhe NOAA 16 DEB em tempo real com AllMySat

Download on the App Store